This is the latest recevied weather packets stored in our database for station/object K9RJT. If no packets are shown the sender has not sent any weather packets the latest 10 day(s).
| Time | Temp. | Humidity | Pressure | Rain* | Wind** | Luminosity | Snow |
|---|---|---|---|---|---|---|---|
| 1777580090 | 20° C | 35% | 1014.8 hPa | 0 mm | - | 557 W/m² | - |
| 1777579786 | 20.56° C | 34% | 1014.8 hPa | 0 mm | - | 367 W/m² | - |
| 1777579484 | 20.56° C | 34% | 1014.9 hPa | 0 mm | - | 533 W/m² | - |
| 1777579179 | 20.56° C | 35% | 1014.7 hPa | 0 mm | - | 620 W/m² | - |
| 1777578874 | 20.56° C | 34% | 1015.1 hPa | 0 mm | - | 546 W/m² | - |
| 1777578571 | 19.44° C | 35% | 1015.1 hPa | 0 mm | - | 737 W/m² | - |
| 1777578265 | 20.56° C | 35% | 1015 hPa | 0 mm | - | 657 W/m² | - |
| 1777577961 | 20.56° C | 36% | 1015.2 hPa | 0 mm | - | 613 W/m² | - |
| 1777577657 | 20° C | 35% | 1015.2 hPa | 0 mm | - | 716 W/m² | - |
| 1777577355 | 20° C | 37% | 1015.3 hPa | 0 mm | - | 693 W/m² | - |
| 1777577050 | 20° C | 37% | 1015.2 hPa | 0 mm | - | 697 W/m² | - |
| 1777576747 | 19.44° C | 39% | 1015.2 hPa | 0 mm | - | 662 W/m² | - |
| 1777576446 | 19.44° C | 37% | 1015.5 hPa | 0 mm | - | 664 W/m² | - |
| 1777576143 | 19.44° C | 38% | 1015.4 hPa | 0 mm | - | 634 W/m² | - |
| 1777575838 | 19.44° C | 38% | 1015.7 hPa | 0 mm | - | 664 W/m² | - |
| 1777575535 | 18.89° C | 39% | 1015.7 hPa | 0 mm | - | 587 W/m² | - |
| 1777575230 | 18.89° C | 38% | 1015.9 hPa | 0 mm | - | 632 W/m² | - |
| 1777574927 | 18.89° C | 41% | 1015.9 hPa | 0 mm | - | 633 W/m² | - |
| 1777574624 | 17.78° C | 42% | 1016 hPa | 0 mm | - | 640 W/m² | - |
| 1777574321 | 17.78° C | 42% | 1016 hPa | 0 mm | - | 613 W/m² | - |
| 1777574015 | 17.22° C | 43% | 1016.2 hPa | 0 mm | - | 589 W/m² | - |
| 1777573716 | 17.78° C | 44% | 1016.1 hPa | 0 mm | - | 585 W/m² | - |
| 1777573412 | 17.78° C | 44% | 1016.2 hPa | 0 mm | - | 593 W/m² | - |
| 1777573108 | 17.22° C | 43% | 1016.2 hPa | 0 mm | - | 601 W/m² | - |
| 1777572805 | 17.22° C | 45% | 1016.2 hPa | 0 mm | - | 588 W/m² | - |
* Rain latest hour (hover to see other rain measurements)
** Current wind speed in m/s (hover to see current wind gust speed)